Tracking 22879 objects as of 21-Apr-2021
HD Live streaming from Space Station
objects crossing your sky now

STARLINK-2432

Track STARLINK-2432 now!
10-day predictions
STARLINK-2432 is classified as:


NORAD ID: 47840
Int'l Code: 2021-018BF
Perigee: 356.0 km
Apogee: 357.7 km
Inclination: 53.0 °
Period: 91.5 minutes
Semi major axis: 6727 km
RCS: Unknown
Launch date: March 11, 2021
Source: United States (US)
Launch site: AIR FORCE EASTERN TEST RANGE (AFETR)
aabbcc
Your satellite tracking list
Your tracking list is empty




NASA's NSSDC Master Catalog

Two Line Element Set (TLE):
1 47840U 21018BF  21110.83335648  .00010007  00000-0  75607-4 0  9997
2 47840  53.0492 346.8299 0001260  84.6569 187.8617 15.73205856  7283
Source of the keplerian elements: AFSPC